SCP
0 -0 0 0 -0 0 -0 0 0 0 0 0 0 0 0 0 0 0 0 0 0 0 0 0 0 0 0 0 0 0 0 0 0 0 0 0 0 0 0 0 0 0 0 0
0 0 0 0 0 0 0 0 0 0 0 0 0 0 0 0 0 0 0 0 0 0 0 0 0 0 0 0 0 0 0 0 0 0 0 0 0 0 0 0 0 0 0 0
0 0 0 0 0 0 0 0 0 0 0 0 0 0 0 0 0 0 0 0 0 0 0 0 0 0 0 0 0 0 0 0 0 0 0 0 0 0 0 0 0 0 0 0
0 0 0 0 0 0 0 0 0 0 0 0 0 0 0 0 0 0 0 0 0 0 0 0 0 0 0 0 0 0 0 0 0 0 0 0 0 0 0 0 0 0 0 0
0 0 0 0 0 0 0 0 0 0 0 0 0 0 0 0 0 0 0 0 0 0 0 0 0 0 0 0 0 0 0 0 0 0 0 0 0 0 0 0 0 0 0 0
0 0 0 0 0 0 0 0 0 0 0 0 0 0 0 0 0 0 0 0 0 0 0 0 0 0 0 0 0 0 0 0 0 0 0 0 0 0 0 0 0 0 0 0
0 0 0 0 0 0 0 0 0 0 0 0 0 0 0 0 0 0 0 0 0 0 0 0 0 0 0 0 0 0 0 0 0 0 -0 -0 -0 0 0 0 0 0 0 0
0 0 0 0 0 0 0 0 0 0 0 0 0 0 0 0 0 0 0 0 0 0 0 0 0 0 0 0 0 0 0 -0 -0 -0 -0 -0 -0 0 0 0 0 0 0 0
0 0 0 0 0 0 0 0 0 0 0 0 0 0 0 0 0 0 0 0 0 0 0 0 0 0 0 0 0 0 0 -0 -0 -0 -0 -0 0 0 0 0 0 0 0 0
0 0 0 0 0 0 0 0 0 0 0 0 0 0 0 0 0 0 0 0 0 0 0 0 0 0 0 0 0 -0 -0 -0 -0 -0 0 0 0 0 0 0 0 0 0 0
0 0 0 0 0 0 0 0 0 0 0 0 0 0 0 0 0 0 0 0 0 0 0 -0 0 0 -0 -0 -0 -0 -0 -0 -0 -0 0 0 0 0 0 0 0 0 0 0
0 0 0 0 0 0 0 0 0 0 0 0 0 0 0 0 0 0 0 0 0 0 0 0 0 0 -0 -0 -0 -0 -0 -0 -0 0 0 0 0 0 0 0 0 0 0 0
0 0 0 0 0 0 0 0 0 0 0 0 0 0 0 0 0 0 0 0 0 0 0 0 0 -0 -0 -0 -0 -0 -0 -0 0 0 0 0 0 0 0 0 0 0 0 0
0 0 0 0 0 0 0 0 0 0 0 0 0 0 0 0 0 0 0 0 0 0 0 0 0 -0 -0 -0 -0 -0 0 0 0 0 0 0 0 0 0 0 0 0 0 0
0 0 0 0 0 0 0 0 0 0 0 0 0 0 0 0 0 0 0 0 0 0 0 -0 -0 -0 0 0 0 0 0 0 0 0 0 0 0 0 0 0 0 0 0 0
0 0 0 0 0 0 0 0 0 0 0 0 0 0 0 0 0 0 0 0 0 -0 0 0 0 0 0 0 0 0 0 0 0 0 0 0 0 0 0 0 0 0 0 0
0 0 0 0 0 0 0 0 0 0 0 0 0 0 0 0 0 0 0 0 0 0 0 0 0 0 0 0 0 0 0 0 0 0 0 0 0 0 0 0 0 0 0 0
0 0 0 0 0 0 0 0 0 0 0 0 0 0 0 0 0 0 0 0 0 0 0 0 0 0 0 0 0 0 0 0 0 0 0 0 0 0 0 0 0 0 0 0
0 0 0 0 0 0 0 0 0 0 0 0 0 0 0 0 0 0 0 0 0 0 0 0 0 0 0 0 0 0 0 0 0 0 0 0 0 0 0 0 0 0 0 0
0 0 0 0 0 0 0 0 0 0 0 0 0 0 0 0 0 0 0 0 0 0 0 0 0 0 0 0 0 0 0 0 0 0 0 0 0 0 0 0 0 0 0 0
0 0 0 0 0 0 0 0 0 0 0 0 0 0 0 0 0 0 0 0 0 0 0 0 0 0 0 0 0 0 0 0 0 0 0 0 0 0 0 0 0 0 0 0
0 0 0 0 0 0 0 0 0 0 0 0 0 0 0 0 0 0 0 0 0 0 0 0 0 0 0 0 0 0 0 0 0 0 0 0 0 0 0 0 0 0 0 0
0 0 0 0 0 0 0 0 0 0 0 0 0 0 0 0 0 0 0 0 0 0 0 0 0 0 0 0 0 0 0 0 0 0 0 0 0 0 0 0 0 0 0 0
0 0 0 0 0 0 0 0 0 0 0 0 0 0 0 0 0 0 0 0 0 0 0 0 0 0 0 0 0 0 0 0 0 0 0 0 0 0 0 0 0 0 0 0
0 0 0 0 0 0 0 0 0 0 0 0 0 0 0 0 0 0 0 0 0 0 0 0 0 0 0 0 0 0 0 0 0 0 0 0 0 0 0 0 0 0 0 0
0 0 0 0 0 0 0 0 0 0 0 0 0 0 0 0 0 0 0 0 0 0 0 0 0 0 0 0 0 0 0 0 0 0 0 0 0 0 0 0 0 0 0 0
Wind_Speed_500mb
22 22 11 12 12 7 6 4 8 4 10 13 9 9 11 33 51 54 47 42 36 34 26 27 29 29 30 32 34 36 35 36 35 32 33 36 41 40 39 39 40 44 47 49
14 12 12 11 16 14 14 8 9 13 13 10 10 9 8 26 31 47 47 47 41 35 33 34 36 39 40 43 43 42 41 41 40 37 35 37 42 44 43 44 47 52 56 55
15 4 18 7 12 9 6 6 5 10 16 2 3 3 6 14 41 45 49 49 48 47 45 43 43 44 46 50 50 49 46 45 45 43 42 40 38 38 41 37 36 40 50 55
14 18 12 14 11 9 6 7 9 11 11 2 11 7 8 9 14 29 42 45 43 38 37 40 44 46 47 49 48 49 51 52 52 51 50 49 49 52 50 50 50 53 57 61
5 13 13 15 5 4 8 4 4 3 5 6 12 7 6 12 7 11 34 40 41 38 40 42 43 43 43 46 49 50 52 53 54 54 54 56 56 56 56 54 54 55 61 69
5 3 5 4 8 6 9 7 5 6 6 7 7 6 6 7 10 7 29 36 36 36 36 36 39 42 46 47 51 55 58 60 61 62 60 59 60 62 65 63 64 61 60 68
8 3 5 6 6 5 13 10 8 11 8 9 3 3 12 9 11 21 25 29 26 26 31 37 43 48 51 54 56 59 61 65 67 68 69 68 68 68 69 69 71 72 71 69
7 13 7 14 6 2 7 8 9 9 5 10 3 11 8 11 30 33 28 19 16 25 35 40 45 50 53 56 60 63 68 71 73 75 77 75 74 75 77 77 75 77 77 75
6 9 3 8 8 5 7 7 4 10 4 7 6 9 4 7 13 22 18 14 19 22 32 40 45 50 56 61 64 68 72 76 80 82 82 82 81 81 82 81 77 75 75 77
2 9 2 4 3 7 5 2 8 7 7 11 11 11 9 11 5 3 8 11 9 14 25 38 50 57 62 66 70 75 80 82 83 83 84 87 88 86 84 79 79 77 71 73
7 7 8 5 3 10 5 4 6 6 9 9 7 11 8 14 13 8 7 8 12 14 23 40 58 64 68 70 75 81 79 78 76 77 79 84 87 87 83 80 76 73 70 65
2 6 6 15 4 2 5 11 10 8 12 7 4 16 2 18 16 6 9 16 17 21 29 45 64 68 72 74 79 78 75 75 78 79 82 85 90 87 83 76 69 68 69 61
5 3 7 18 6 8 3 8 5 3 4 12 5 14 1 7 10 4 14 24 24 27 34 52 67 71 72 76 78 77 75 76 76 82 83 85 87 86 78 77 71 61 62 55
1 5 14 13 14 6 9 10 10 10 4 7 21 23 10 12 9 17 22 31 30 29 42 59 66 71 77 80 79 78 74 77 80 84 84 83 84 85 82 76 71 65 53 52
8 9 4 10 13 9 16 26 9 19 20 11 34 14 14 11 13 20 33 38 34 38 49 59 74 77 84 83 84 80 77 80 79 83 81 80 81 81 83 80 76 70 53 50
2 6 5 12 11 7 12 25 19 19 23 16 36 40 8 4 16 23 42 48 35 42 61 77 79 83 85 86 85 79 79 78 78 78 76 77 81 81 81 79 77 69 61 51
6 7 5 11 7 14 15 15 10 8 8 13 9 13 3 8 20 28 49 31 39 62 75 81 81 85 84 81 79 81 75 77 73 73 75 77 83 85 79 78 76 69 64 63
9 8 6 8 10 4 13 7 9 15 13 11 0 8 14 11 25 43 20 34 58 70 78 80 84 84 78 78 77 72 74 74 71 73 75 77 83 83 80 76 71 65 61 60
2 6 4 1 4 15 10 7 8 8 12 9 9 2 7 23 31 24 20 47 66 72 75 80 82 79 80 76 72 75 75 69 72 74 77 78 81 83 80 76 73 69 64 62
8 11 7 5 5 11 7 5 5 8 9 9 4 4 16 27 12 12 47 67 70 72 77 83 78 80 79 77 71 73 68 70 72 77 81 80 79 79 78 75 71 66 61 55
5 5 11 6 9 18 8 10 7 8 9 9 3 10 18 9 26 57 66 70 72 77 81 78 76 77 78 77 69 65 67 68 72 80 82 84 80 77 74 74 71 67 60 55
16 17 10 6 3 18 15 8 11 7 8 2 9 17 27 39 52 61 66 71 78 80 80 76 77 80 84 83 77 72 72 72 81 84 88 90 84 79 73 71 70 67 59 53
6 14 9 20 13 7 18 9 11 5 2 8 18 26 38 47 58 66 72 75 77 77 80 84 87 92 95 92 84 79 84 74 83 90 93 90 88 81 74 69 69 67 61 54
8 16 7 4 5 12 17 14 9 4 5 14 24 36 46 55 64 71 74 76 77 80 87 91 90 89 92 89 87 80 81 75 87 100 98 91 88 84 78 73 67 65 59 57
7 16 7 10 4 14 18 13 8 5 13 22 34 43 51 57 64 68 70 73 78 85 85 80 79 80 84 87 88 78 71 73 100 98 91 85 78 78 80 76 68 56 57 49
24 13 9 10 19 8 9 15 8 10 20 31 41 50 51 53 58 61 67 73 75 82 89 90 87 84 87 85 74 68 88 101 89 83 76 74 72 77 75 71 73 62 52 46
Wind_Direction_500mb
34 57 34 346 346 325 311 358 354 27 34 14 30 17 32 54 61 59 61 66 68 70 52 24 12 9 9 9 7 6 2 3 356 345 332 323 315 311 308 304 306 311 308 302
38 51 313 323 7 64 27 22 335 296 3 12 23 35 51 54 60 60 57 55 50 50 40 26 17 16 19 17 15 13 10 7 3 357 345 328 318 311 302 292 301 301 299 296
103 284 326 88 28 46 55 90 324 244 332 320 51 318 117 58 71 66 59 57 52 47 41 36 29 22 15 15 14 13 12 6 1 356 348 340 332 322 317 305 291 297 294 294
69 356 26 37 63 31 27 6 327 328 23 237 18 266 225 111 66 58 60 55 51 45 38 34 30 31 29 25 22 21 19 15 10 4 358 350 339 330 324 314 304 295 290 290
286 6 12 41 328 15 245 323 305 41 81 61 337 79 293 134 81 73 61 55 50 45 46 40 36 34 31 23 19 14 12 7 3 359 355 348 341 334 326 318 308 294 290 291
108 47 71 251 279 230 300 27 49 43 91 19 276 95 230 228 164 94 65 58 53 45 38 34 28 23 18 15 10 6 3 1 358 354 349 343 336 329 323 319 312 303 293 285
347 344 330 5 339 15 35 46 348 358 6 225 284 55 243 142 103 116 90 64 59 47 38 31 24 19 13 10 5 2 358 355 351 347 344 339 333 326 319 313 307 302 296 289
76 333 13 360 65 212 359 122 142 236 262 267 7 240 246 131 107 94 81 80 68 39 31 26 19 13 8 4 -0 355 352 348 345 341 336 331 327 323 317 312 307 301 298 292
50 286 84 41 2 40 320 40 132 95 55 44 264 308 132 94 54 74 63 55 38 27 21 17 11 6 0 357 354 351 346 340 336 331 326 321 319 318 320 316 310 305 304 301
102 343 354 314 7 23 96 335 22 15 348 311 293 282 241 213 229 4 42 29 354 6 10 6 1 358 355 352 349 345 342 338 333 330 326 322 319 319 315 315 314 307 305 306
137 111 283 50 190 184 2 5 38 137 153 201 277 258 207 193 191 167 24 339 301 328 342 352 354 352 350 349 347 344 343 340 340 339 336 333 329 326 322 317 315 314 303 302
223 132 255 236 196 212 199 202 174 131 269 233 181 269 197 148 133 99 2 327 304 295 328 343 347 347 347 346 344 343 342 339 338 336 335 334 334 329 330 322 318 316 306 302
151 319 351 340 4 358 246 234 171 78 65 208 175 268 98 164 136 17 318 329 316 309 326 337 343 343 343 342 340 339 338 337 336 335 334 333 333 332 330 327 324 321 309 300
233 199 175 204 219 150 254 229 210 145 148 217 235 283 267 246 259 310 313 332 325 327 332 336 338 340 339 337 336 335 333 334 333 332 330 330 332 332 331 327 324 327 315 299
145 208 264 254 235 210 250 251 194 195 230 226 277 244 271 224 243 306 331 335 329 330 330 335 338 336 334 333 332 332 329 328 329 329 330 333 332 333 333 329 326 320 322 319
99 271 85 295 313 265 271 265 228 231 257 255 269 275 137 293 296 317 334 336 328 326 337 335 333 332 331 330 327 328 325 325 329 329 333 335 336 335 335 333 330 323 321 317
134 123 69 261 332 328 313 239 178 197 212 167 215 234 232 283 310 328 324 330 331 335 329 328 329 329 328 325 325 325 322 325 328 329 332 336 337 336 335 336 333 328 323 318
138 121 131 261 355 28 240 164 167 200 239 222 82 224 218 280 323 318 327 332 328 324 324 326 326 326 326 323 323 324 325 326 327 328 331 336 336 336 336 336 336 332 328 320
56 111 312 258 211 296 269 194 181 184 266 172 193 217 325 322 318 306 312 318 319 322 324 323 325 325 325 325 327 325 324 327 329 328 330 332 334 335 335 337 339 337 336 328
60 68 116 60 167 268 247 179 132 121 271 152 113 345 327 333 313 279 316 318 321 323 325 328 327 325 327 328 324 324 325 326 331 330 326 328 330 331 333 335 336 337 336 328
119 198 207 217 245 281 258 155 136 75 312 149 318 316 313 287 289 306 317 322 324 325 328 329 328 325 326 326 322 319 318 323 328 327 324 324 326 327 328 331 335 334 332 329
172 162 203 132 222 281 172 130 173 142 136 273 306 317 314 312 313 318 321 324 325 326 329 331 329 328 329 331 329 320 316 320 323 324 323 321 321 322 324 325 329 331 329 327
276 199 186 186 217 136 175 218 183 171 191 303 312 315 317 318 320 322 324 324 325 325 327 329 328 326 326 328 327 318 319 312 316 320 322 320 319 320 320 322 322 326 328 326
240 193 211 51 209 194 181 174 189 231 296 310 313 321 323 322 323 322 322 323 324 327 327 328 326 322 321 324 323 318 319 307 316 322 321 319 318 319 318 318 320 320 322 323
205 156 185 266 226 158 190 190 196 250 308 315 318 323 323 323 319 321 321 322 324 323 323 322 320 321 320 319 322 327 319 315 318 318 315 316 316 316 317 316 318 316 310 313
194 195 180 240 165 147 149 177 221 292 320 322 323 323 323 322 320 323 322 323 322 323 327 326 323 321 322 326 322 313 311 315 316 316 316 315 315 316 319 319 316 312 308 307
Wind_Speed_850mb
22 22 11 12 12 7 6 4 8 4 10 13 9 9 11 33 51 54 47 42 36 34 26 27 29 29 30 32 34 36 35 36 35 32 33 36 41 40 39 39 40 44 47 49
14 12 12 11 16 14 14 8 9 13 13 10 10 9 8 26 31 47 47 47 41 35 33 34 36 39 40 43 43 42 41 41 40 37 35 37 42 44 43 44 47 52 56 55
15 4 18 7 12 9 6 6 5 10 16 2 3 3 6 14 41 45 49 49 48 47 45 43 43 44 46 50 50 49 46 45 45 43 42 40 38 38 41 37 36 40 50 55
14 18 12 14 11 9 6 7 9 11 11 2 11 7 8 9 14 29 42 45 43 38 37 40 44 46 47 49 48 49 51 52 52 51 50 49 49 52 50 50 50 53 57 61
5 13 13 15 5 4 8 4 4 3 5 6 12 7 6 12 7 11 34 40 41 38 40 42 43 43 43 46 49 50 52 53 54 54 54 56 56 56 56 54 54 55 61 69
5 3 5 4 8 6 9 7 5 6 6 7 7 6 6 7 10 7 29 36 36 36 36 36 39 42 46 47 51 55 58 60 61 62 60 59 60 62 65 63 64 61 60 68
8 3 5 6 6 5 13 10 8 11 8 9 3 3 12 9 11 21 25 29 26 26 31 37 43 48 51 54 56 59 61 65 67 68 69 68 68 68 69 69 71 72 71 69
7 13 7 14 6 2 7 8 9 9 5 10 3 11 8 11 30 33 28 19 16 25 35 40 45 50 53 56 60 63 68 71 73 75 77 75 74 75 77 77 75 77 77 75
6 9 3 8 8 5 7 7 4 10 4 7 6 9 4 7 13 22 18 14 19 22 32 40 45 50 56 61 64 68 72 76 80 82 82 82 81 81 82 81 77 75 75 77
2 9 2 4 3 7 5 2 8 7 7 11 11 11 9 11 5 3 8 11 9 14 25 38 50 57 62 66 70 75 80 82 83 83 84 87 88 86 84 79 79 77 71 73
7 7 8 5 3 10 5 4 6 6 9 9 7 11 8 14 13 8 7 8 12 14 23 40 58 64 68 70 75 81 79 78 76 77 79 84 87 87 83 80 76 73 70 65
2 6 6 15 4 2 5 11 10 8 12 7 4 16 2 18 16 6 9 16 17 21 29 45 64 68 72 74 79 78 75 75 78 79 82 85 90 87 83 76 69 68 69 61
5 3 7 18 6 8 3 8 5 3 4 12 5 14 1 7 10 4 14 24 24 27 34 52 67 71 72 76 78 77 75 76 76 82 83 85 87 86 78 77 71 61 62 55
1 5 14 13 14 6 9 10 10 10 4 7 21 23 10 12 9 17 22 31 30 29 42 59 66 71 77 80 79 78 74 77 80 84 84 83 84 85 82 76 71 65 53 52
8 9 4 10 13 9 16 26 9 19 20 11 34 14 14 11 13 20 33 38 34 38 49 59 74 77 84 83 84 80 77 80 79 83 81 80 81 81 83 80 76 70 53 50
2 6 5 12 11 7 12 25 19 19 23 16 36 40 8 4 16 23 42 48 35 42 61 77 79 83 85 86 85 79 79 78 78 78 76 77 81 81 81 79 77 69 61 51
6 7 5 11 7 14 15 15 10 8 8 13 9 13 3 8 20 28 49 31 39 62 75 81 81 85 84 81 79 81 75 77 73 73 75 77 83 85 79 78 76 69 64 63
9 8 6 8 10 4 13 7 9 15 13 11 0 8 14 11 25 43 20 34 58 70 78 80 84 84 78 78 77 72 74 74 71 73 75 77 83 83 80 76 71 65 61 60
2 6 4 1 4 15 10 7 8 8 12 9 9 2 7 23 31 24 20 47 66 72 75 80 82 79 80 76 72 75 75 69 72 74 77 78 81 83 80 76 73 69 64 62
8 11 7 5 5 11 7 5 5 8 9 9 4 4 16 27 12 12 47 67 70 72 77 83 78 80 79 77 71 73 68 70 72 77 81 80 79 79 78 75 71 66 61 55
5 5 11 6 9 18 8 10 7 8 9 9 3 10 18 9 26 57 66 70 72 77 81 78 76 77 78 77 69 65 67 68 72 80 82 84 80 77 74 74 71 67 60 55
16 17 10 6 3 18 15 8 11 7 8 2 9 17 27 39 52 61 66 71 78 80 80 76 77 80 84 83 77 72 72 72 81 84 88 90 84 79 73 71 70 67 59 53
6 14 9 20 13 7 18 9 11 5 2 8 18 26 38 47 58 66 72 75 77 77 80 84 87 92 95 92 84 79 84 74 83 90 93 90 88 81 74 69 69 67 61 54
8 16 7 4 5 12 17 14 9 4 5 14 24 36 46 55 64 71 74 76 77 80 87 91 90 89 92 89 87 80 81 75 87 100 98 91 88 84 78 73 67 65 59 57
7 16 7 10 4 14 18 13 8 5 13 22 34 43 51 57 64 68 70 73 78 85 85 80 79 80 84 87 88 78 71 73 100 98 91 85 78 78 80 76 68 56 57 49
24 13 9 10 19 8 9 15 8 10 20 31 41 50 51 53 58 61 67 73 75 82 89 90 87 84 87 85 74 68 88 101 89 83 76 74 72 77 75 71 73 62 52 46
Wind_Direction_850mb
34 57 34 346 346 325 311 358 354 27 34 14 30 17 32 54 61 59 61 66 68 70 52 24 12 9 9 9 7 6 2 3 356 345 332 323 315 311 308 304 306 311 308 302
38 51 313 323 7 64 27 22 335 296 3 12 23 35 51 54 60 60 57 55 50 50 40 26 17 16 19 17 15 13 10 7 3 357 345 328 318 311 302 292 301 301 299 296
103 284 326 88 28 46 55 90 324 244 332 320 51 318 117 58 71 66 59 57 52 47 41 36 29 22 15 15 14 13 12 6 1 356 348 340 332 322 317 305 291 297 294 294
69 356 26 37 63 31 27 6 327 328 23 237 18 266 225 111 66 58 60 55 51 45 38 34 30 31 29 25 22 21 19 15 10 4 358 350 339 330 324 314 304 295 290 290
286 6 12 41 328 15 245 323 305 41 81 61 337 79 293 134 81 73 61 55 50 45 46 40 36 34 31 23 19 14 12 7 3 359 355 348 341 334 326 318 308 294 290 291
108 47 71 251 279 230 300 27 49 43 91 19 276 95 230 228 164 94 65 58 53 45 38 34 28 23 18 15 10 6 3 1 358 354 349 343 336 329 323 319 312 303 293 285
347 344 330 5 339 15 35 46 348 358 6 225 284 55 243 142 103 116 90 64 59 47 38 31 24 19 13 10 5 2 358 355 351 347 344 339 333 326 319 313 307 302 296 289
76 333 13 360 65 212 359 122 142 236 262 267 7 240 246 131 107 94 81 80 68 39 31 26 19 13 8 4 -0 355 352 348 345 341 336 331 327 323 317 312 307 301 298 292
50 286 84 41 2 40 320 40 132 95 55 44 264 308 132 94 54 74 63 55 38 27 21 17 11 6 0 357 354 351 346 340 336 331 326 321 319 318 320 316 310 305 304 301
102 343 354 314 7 23 96 335 22 15 348 311 293 282 241 213 229 4 42 29 354 6 10 6 1 358 355 352 349 345 342 338 333 330 326 322 319 319 315 315 314 307 305 306
137 111 283 50 190 184 2 5 38 137 153 201 277 258 207 193 191 167 24 339 301 328 342 352 354 352 350 349 347 344 343 340 340 339 336 333 329 326 322 317 315 314 303 302
223 132 255 236 196 212 199 202 174 131 269 233 181 269 197 148 133 99 2 327 304 295 328 343 347 347 347 346 344 343 342 339 338 336 335 334 334 329 330 322 318 316 306 302
151 319 351 340 4 358 246 234 171 78 65 208 175 268 98 164 136 17 318 329 316 309 326 337 343 343 343 342 340 339 338 337 336 335 334 333 333 332 330 327 324 321 309 300
233 199 175 204 219 150 254 229 210 145 148 217 235 283 267 246 259 310 313 332 325 327 332 336 338 340 339 337 336 335 333 334 333 332 330 330 332 332 331 327 324 327 315 299
145 208 264 254 235 210 250 251 194 195 230 226 277 244 271 224 243 306 331 335 329 330 330 335 338 336 334 333 332 332 329 328 329 329 330 333 332 333 333 329 326 320 322 319
99 271 85 295 313 265 271 265 228 231 257 255 269 275 137 293 296 317 334 336 328 326 337 335 333 332 331 330 327 328 325 325 329 329 333 335 336 335 335 333 330 323 321 317
134 123 69 261 332 328 313 239 178 197 212 167 215 234 232 283 310 328 324 330 331 335 329 328 329 329 328 325 325 325 322 325 328 329 332 336 337 336 335 336 333 328 323 318
138 121 131 261 355 28 240 164 167 200 239 222 82 224 218 280 323 318 327 332 328 324 324 326 326 326 326 323 323 324 325 326 327 328 331 336 336 336 336 336 336 332 328 320
56 111 312 258 211 296 269 194 181 184 266 172 193 217 325 322 318 306 312 318 319 322 324 323 325 325 325 325 327 325 324 327 329 328 330 332 334 335 335 337 339 337 336 328
60 68 116 60 167 268 247 179 132 121 271 152 113 345 327 333 313 279 316 318 321 323 325 328 327 325 327 328 324 324 325 326 331 330 326 328 330 331 333 335 336 337 336 328
119 198 207 217 245 281 258 155 136 75 312 149 318 316 313 287 289 306 317 322 324 325 328 329 328 325 326 326 322 319 318 323 328 327 324 324 326 327 328 331 335 334 332 329
172 162 203 132 222 281 172 130 173 142 136 273 306 317 314 312 313 318 321 324 325 326 329 331 329 328 329 331 329 320 316 320 323 324 323 321 321 322 324 325 329 331 329 327
276 199 186 186 217 136 175 218 183 171 191 303 312 315 317 318 320 322 324 324 325 325 327 329 328 326 326 328 327 318 319 312 316 320 322 320 319 320 320 322 322 326 328 326
240 193 211 51 209 194 181 174 189 231 296 310 313 321 323 322 323 322 322 323 324 327 327 328 326 322 321 324 323 318 319 307 316 322 321 319 318 319 318 318 320 320 322 323
205 156 185 266 226 158 190 190 196 250 308 315 318 323 323 323 319 321 321 322 324 323 323 322 320 321 320 319 322 327 319 315 318 318 315 316 316 316 317 316 318 316 310 313
194 195 180 240 165 147 149 177 221 292 320 322 323 323 323 322 320 323 322 323 322 323 327 326 323 321 322 326 322 313 311 315 316 316 316 315 315 316 319 319 316 312 308 307